Location: Hains Lake
(37.8540°N, 99.8578°W)
Time: 20:03:50
(UTC+00:00)

Courier 1B Rocket - Pass Details

Date: 23 April 2021
Orbit: 920 x 1202 km, 28.2° (Epoch: 05 May)

Event Time Altitude Azimuth Distance (km) Brightness Sun altitude
Rises 03:41:37 0° 257° (WSW) 3,700 8.5 -24.8°
Reaches altitude 10° 03:44:25 10° 249° (WSW) 2,791 7.7 -25.3°
Enters shadow 03:50:10 36° 193° (SSW) 1,603 5.8 -26.1°
